Preview of NWS' New Version of Forecast
This preview is not operational and should not be used for support decisions.

Regional Weather Roundup (RWR)

Issued by National Weather Service (NWS)

                            
000
ASUS45 KBOI 230110
RWRID 

IDAHO REGIONAL WEATHER ROUNDUP
NATIONAL WEATHER SERVICE BOISE ID
600 PM MST FRI FEB 22 2019

NOTE: "FAIR" INDICATES FEW OR NO CLOUDS BELOW 12000 FEET
WITH NO SIGNIFICANT WEATHER AND/OR OBSTRUCTIONS TO VISIBILITY

IDZ012-014-230200-
SOUTHWEST IDAHO

  
CITY           SKY/WX    TMP DP  RH WIND       PRES   REMARKS
BOISE          FAIR      31  17  56 SE6       30.04F WCI  25          
CALDWELL       MOCLDY    33  22  63 E10       30.05F WCI  25          
MOUNTAIN HOME  FAIR      31  20  65 N9        30.05S WCI  23          
$$

IDZ016-017-230200-
SOUTHCENTRAL IDAHO

  
CITY           SKY/WX    TMP DP  RH WIND       PRES   REMARKS
BURLEY         PTCLDY    24  15  68 W5        29.99S WCI  18          
JEROME         CLEAR     25  15  66 SW7       30.01S WCI  17          
TWIN FALLS     PTCLDY    21  15  78 CALM      30.01S                  
$$

IDZ019>023-230200-
SOUTHEAST IDAHO

  
CITY           SKY/WX    TMP DP  RH WIND       PRES   REMARKS
IDAHO FALLS    LGT SNOW  18  13  80 SW7       29.99R WCI   9          
POCATELLO      MOCLDY    21  15  78 W7        30.01R WCI  12          
REXBURG        LGT SNOW  13   7  77 N8        29.98R WCI   2          
$$

IDZ006-010-011-018-031-032-230200-
CENTRAL IDAHO MOUNTAINS

  
CITY           SKY/WX    TMP DP  RH WIND       PRES   REMARKS
MCCALL         CLOUDY    16   7  67 S5        29.89F WCI   9          
HAILEY         CLEAR     12   9  85 CALM      29.94R                  
STANLEY          N/A     11   1  64 CALM      29.85F                  
SALMON         CLEAR     19   6  57 W3        29.93S                  
CHALLIS        CLEAR     13   3  64 NW3       29.88R                  
$$

IDZ002-004-006-007-026-230200-
NORTHERN IDAHO

  
CITY           SKY/WX    TMP DP  RH WIND       PRES   REMARKS
LEWISTON       CLOUDY    27  18  69 CALM      29.97F                  
LOWELL           N/A     32  28  85 CALM      29.99F                  
COEUR D'ALENE  FLURRIES  27  22  81 S5        29.88F WCI  22          
MULLAN PASS    LGT SNOW  13   9  84 VRB7      29.72S VSB 1   WCI   3  
$$